sat.trackr.live / text

‹ back to catalog

STARLINK-11500 [DTC]

NORAD 62472 · 2024-254L

PAYLOAD ACTIVE UNKNOWN

§ Identity

Operator
Country
US
Launch date
2024-12-31
Launch site
AFETR
Launch vehicle
Mass (kg)
RCS (m²)

Purposes: comms

External: N2YO · Heavens-Above · Gunter

§ Orbital elements

Epoch: 2026-05-24T09:54:03.722976Z

Period
91.67 min
Inclination
43.0007°
Eccentricity
0.0002344
Mean motion
15.70885437 rev/d
Perigee alt
354.8 km
Apogee alt
357.9 km
Semi-major
6,734.5 km
B*
1.4697e-3
RAAN
126.2634°
Arg perigee
249.5459°
Mean anomaly
110.5157°
Rev number
8,078

§ Raw data

STARLINK-11500 [DTC]1 62472U 24254L   26144.41254309  .00192944  00000+0  14697-2 0  99902 62472  43.0007 126.2634 0002344 249.5459 110.5157 15.70885437 80783

JSON: /api/v1/satellites/62472 · /tle

For live sub-satellite position, see the globe view (requires WebGL).

§ Visibility from observer

Set your observer location to see the next 7 days of passes ≥ 10°. The values pass through the URL so the page stays shareable.

No JS? Fill the form by hand. The geolocation button needs JavaScript.